Weather History for RJOO - November, 2012

Change the Weather History Date:

Tuesday, November 6, 2012

  Actual Average Record
Temperature  
Mean Temperature 62 °F -  
Max Temperature 68 °F 59 °F 75 °F (2006)
Min Temperature 57 °F 43 °F 39 °F (2002)
Degree Days  
Heating Degree Days 2    
Growing Degree Days 12 (Base 50)    
Moisture  
Dew Point 53 °F    
Average Humidity 76    
Maximum Humidity 94    
Minimum Humidity 40    
Precipitation  
Precipitation 0.00 in - - ()
Sea Level Pressure  
Sea Level Pressure 29.90 in    
Wind  
Wind Speed 4 mph ()    
Max Wind Speed 12 mph    
Max Gust Speed -    
Visibility 6.1 miles    
Events Rain , Thunderstorm    
Averages and records for this station are not official NWS values.
T = Trace of Precipitation, MM = Missing Value Source: Averaged Metar Reports

Daily Weather History Graph

Daily Weather History Graph

Search for Another Location

Airport or City:

Trip Planner

Search our weather history database for the weather conditions in past years. The results will help you decide how hot, cold, wet, or windy it might be!

Date:

Astronomy

Nov. 06, 2012 Rise Set
Actual Time 6:23 AM JST 4:59 PM JST
Civil Twilight 5:57 AM JST 5:26 PM JST
Nautical Twilight 5:27 AM JST 5:56 PM JST
Astronomical Twilight 4:57 AM JST 6:25 PM JST
Moon 10:58 PM JST (11/6) 11:55 AM JST (11/6)
Length of Visible Light 11h 29m
Length of Day
10h 36m
Waning Gibbous, 59% of the Moon is Illuminated
Nov 6
Waning Gibbous
Nov 7
Last Quarter
Nov 14
New
Nov 20
First Quarter
Nov 28
Full

Hourly Weather History & Observations

Time (JST) Temp. Dew Point Humidity Pressure Visibility Wind Dir Wind Speed Gust Speed Precip Events Conditions
4:35 AM 59.0 °F 55.4 °F 88% 29.92 in 6.2 mi Variable 3.5 mph - N/A Rain , Thunderstorm Thunderstorms and Rain
5:00 AM 57.2 °F 55.4 °F 94% 29.92 in 4.3 mi NW 5.8 mph - N/A Rain , Thunderstorm Thunderstorms and Rain
5:29 AM 59.0 °F 57.2 °F 94% 29.89 in 6.2 mi East 5.8 mph - N/A Rain , Thunderstorm Light Thunderstorms and Rain
5:46 AM 59.0 °F 57.2 °F 94% 29.89 in 6.2 mi ESE 3.5 mph - N/A Rain Light Rain Showers
6:00 AM 59.0 °F 57.2 °F 94% 29.92 in 6.2 mi ESE 4.6 mph - N/A Rain , Thunderstorm Light Thunderstorms and Rain
6:09 AM 59.0 °F 57.2 °F 94% 29.89 in 6.2 mi ESE 3.5 mph - N/A Rain Light Rain Showers
7:00 AM 59.0 °F 57.2 °F 94% 29.92 in 6.2 mi Variable 2.3 mph - N/A Rain Light Rain Showers
8:00 AM 60.8 °F 59.0 °F 94% 29.92 in 6.2 mi NW 2.3 mph - N/A   Mostly Cloudy
8:37 AM 59.0 °F 57.2 °F 94% 29.95 in 6.2 mi NW 3.5 mph - N/A Rain Light Rain Showers
8:49 AM 59.0 °F 57.2 °F 94% 29.95 in 6.2 mi NW 3.5 mph - N/A Rain Light Rain Showers
9:00 AM 59.0 °F 57.2 °F 94% 29.95 in 6.2 mi Variable 2.3 mph - N/A Rain Light Rain Showers
9:12 AM 59.0 °F 57.2 °F 94% 29.92 in 6.2 mi Variable 1.2 mph - N/A   Mostly Cloudy
10:00 AM 60.8 °F 57.2 °F 88% 29.92 in 6.2 mi Variable 1.2 mph - N/A   Mostly Cloudy
11:00 AM 64.4 °F 57.2 °F 77% 29.89 in 6.2 mi Variable 1.2 mph - N/A   Mostly Cloudy
12:00 PM 64.4 °F 53.6 °F 68% 29.89 in 6.2 mi Variable 1.2 mph - N/A   Mostly Cloudy
1:00 PM 66.2 °F 48.2 °F 52% 29.86 in 6.2 mi SW 10.4 mph - N/A   Mostly Cloudy
2:00 PM 68.0 °F 48.2 °F 49% 29.83 in 6.2 mi WSW 9.2 mph - N/A   Partly Cloudy
3:00 PM 68.0 °F 42.8 °F 40% 29.83 in 6.2 mi WSW 11.5 mph - N/A   Partly Cloudy
4:00 PM 66.2 °F 42.8 °F 43% 29.83 in 6.2 mi West 6.9 mph - N/A   Partly Cloudy
5:00 PM 62.6 °F 44.6 °F 52% 29.86 in 6.2 mi West 3.5 mph - N/A   Partly Cloudy
6:00 PM 62.6 °F 46.4 °F 55% 29.86 in 6.2 mi Variable 2.3 mph - N/A   Partly Cloudy
7:00 PM 60.8 °F 44.6 °F 55% 29.89 in 6.2 mi WNW 5.8 mph - N/A   Partly Cloudy
8:00 PM 60.8 °F 37.4 °F 42% 29.89 in 6.2 mi WNW 8.1 mph - N/A   Partly Cloudy